Flag for Qatar Weather past 2 weeks in Al Khor, Qatar

Now
82 °F

Passing clouds.


Feels Like: 81 °F
Forecast: 79 / 92 °F
Wind: 6 mph from West

Location: Doha International Airport


UV Index: 7 (High)

Visibility: N/A


Pressure: 29.80 "Hg

Humidity: 37%

Dew point: 54 °F

Location of Al KhorLocation

Historic Weather in Al Khor

°F

Al Khor temperature yesterday

Maximum temperature yesterday: 97 °F (at 2:00 PM)
Minimum temperature yesterday: 82 °F (at 4:00 AM)
Average temperature yesterday: 89 °F

Past Weeks' High & Low Weather Summary

 TemperatureHumidityPressure
High104 °F (Apr 18, 1:00 PM)88% (Apr 8, 3:00 AM)30.12 "Hg (Apr 8, 3:00 AM)
Low68 °F (Apr 7, 3:00 AM)10% (Apr 18, 3:00 PM)29.74 "Hg (Apr 21, 2:00 AM)
Average85 °F38%29.91 "Hg
* Reported Apr 6 6:00 AM — Apr 21 6:00 AM, Al Khor, Weather by CustomWeather, © 2014

Note: Actual official high and low records may vary slightly from our data, if they occured in-between our weather recording intervals... More about our weather records

Advertising

Historic Weather Conditions — Data for Previous 24 hours

 ConditionsComfort  
Time TempWeatherWind HumidityBarometerVisibility
6:00 AM
Apr 21
79 °FPassing clouds.5 mph45%29.77 "HgN/A
5:00 AM79 °FPassing clouds.5 mph45%29.77 "HgN/A
4:00 AM79 °FPassing clouds.6 mph48%29.77 "HgN/A
3:00 AM79 °FPassing clouds.7 mph48%29.74 "HgN/A
2:00 AM81 °FPassing clouds.6 mph45%29.74 "HgN/A
1:00 AM84 °FClear.2 mph37%29.77 "Hg10 mi
12:00 AM84 °FPassing clouds.6 mph35%29.77 "HgN/A
11:00 PM
Apr 20
84 °FPassing clouds.7 mph33%29.77 "HgN/A
10:00 PM86 °FPassing clouds.8 mph27%29.80 "HgN/A
9:00 PM86 °FPassing clouds.9 mph29%29.80 "HgN/A
8:00 PM88 °FPassing clouds.9 mph25%29.80 "HgN/A
7:00 PM88 °FPassing clouds.8 mph24%29.80 "HgN/A
6:00 PM91 °FPassing clouds.13 mph17%29.77 "HgN/A
5:00 PM93 °FPassing clouds.16 mph16%29.77 "HgN/A
4:00 PM95 °FPassing clouds.17 mph14%29.77 "HgN/A
3:00 PM95 °FPassing clouds.18 mph13%29.77 "HgN/A
2:00 PM97 °FPassing clouds.10 mph14%29.77 "HgN/A
1:00 PM95 °FPassing clouds.15 mph16%29.80 "HgN/A
12:00 PM95 °FPassing clouds.16 mph15%29.80 "HgN/A
11:00 AM93 °FPassing clouds.14 mph17%29.83 "HgN/A
10:00 AM93 °FPassing clouds.14 mph15%29.86 "HgN/A
9:00 AM90 °FPassing clouds.16 mph21%29.86 "HgN/A
8:00 AM88 °FPassing clouds.13 mph24%29.86 "HgN/A
7:00 AM86 °FPassing clouds.14 mph29%29.83 "HgN/A
Weather by CustomWeather, © 2014

See weather overview